sat.trackr.live / text

‹ back to catalog

SAR-LUPE 2

NORAD 31797 · 2007-030A

PAYLOAD ACTIVE UNKNOWN

§ Identity

Operator
Country
GER
Launch date
2007-07-02
Launch site
PLMSC
Launch vehicle
Mass (kg)
RCS (m²)

Purposes: military

External: N2YO · Heavens-Above · Gunter

§ Orbital elements

Epoch: 2026-05-25T05:01:58.185408Z

Period
93.11 min
Inclination
98.1010°
Eccentricity
0.0012483
Mean motion
15.46637862 rev/d
Perigee alt
418.1 km
Apogee alt
435.1 km
Semi-major
6,804.7 km
B*
6.6950e-4
RAAN
246.8691°
Arg perigee
184.9060°
Mean anomaly
175.2067°
Rev number
5,338

§ Raw data

SAR-LUPE 21 31797U 07030A   26145.20970122  .00033474  00000+0  66950-3 0  99972 31797  98.1010 246.8691 0012483 184.9060 175.2067 15.46637862 53385

JSON: /api/v1/satellites/31797 · /tle

For live sub-satellite position, see the globe view (requires WebGL).

§ Visibility from observer

Set your observer location to see the next 7 days of passes ≥ 10°. The values pass through the URL so the page stays shareable.

No JS? Fill the form by hand. The geolocation button needs JavaScript.